Lakeview AWS, OR

2:59 AM PST on November 21, 2017 (GMT -0800)
Lake County

Weather History for KLKV - June, 2013

Change the Weather History Date:

Monday, June 24, 2013

  Actual Average Record
Temperature  
Mean Temperature 52 °F -  
Max Temperature 55 °F 76 °F 94 °F (1961)
Min Temperature 48 °F 45 °F 33 °F (1966)
Degree Days  
Heating Degree Days 14    
Growing Degree Days 2 (Base 50)    
Moisture  
Dew Point 44 °F    
Average Humidity 77    
Maximum Humidity 93    
Minimum Humidity 62    
Precipitation  
Precipitation 0.11 in - - ()
Sea Level Pressure  
Sea Level Pressure 29.83 in    
Wind  
Wind Speed 12 mph (South)    
Max Wind Speed 23 mph    
Max Gust Speed 30 mph    
Visibility 10 miles    
Events      
Averages and records for this station are not official NWS values.
T = Trace of Precipitation, MM = Missing Value Source: NWS Daily Summary

Daily Weather History Graph

Daily Weather History Graph

Search for Another Location

Airport or City:

Trip Planner

Search our weather history database for the weather conditions in past years. The results will help you decide how hot, cold, wet, or windy it might be!

Date:

Astronomy

Jun. 24, 2013 Rise Set
Actual Time 5:26 AM PDT 8:41 PM PDT
Civil Twilight 4:51 AM PDT 9:16 PM PDT
Nautical Twilight 4:07 AM PDT 10:00 PM PDT
Astronomical Twilight 3:12 AM PDT 10:55 PM PDT
Moon 9:45 PM PDT (6/24) 7:02 AM PDT (6/24)
Length of Visible Light 16h 24m
Length of Day
15h 15m
Full, 97% of the Moon is Illuminated
Jun 24
Full
Jun 29
Last Quarter
Jul 8
New
Jul 15
First Quarter
Jul 22
Full

Hourly Weather History & Observations

Time (PDT) Temp. Dew Point Humidity Pressure Visibility Wind Dir Wind Speed Gust Speed Precip Events Conditions
12:15 AM 51.8 °F 42.8 °F 71% 29.82 in 10.0 mi South 12.7 mph - N/A   Clear
12:35 AM 51.8 °F 44.6 °F 76% 29.82 in 10.0 mi South 11.5 mph - N/A   Clear
12:55 AM 51.8 °F 44.6 °F 76% 29.81 in 10.0 mi SSE 10.4 mph - N/A   Clear
1:15 AM 51.8 °F 44.6 °F 76% 29.81 in 10.0 mi SSE 8.1 mph - N/A   Clear
1:35 AM 50.0 °F 44.6 °F 82% 29.80 in 10.0 mi South 9.2 mph - N/A   Clear
1:55 AM 51.8 °F 44.6 °F 76% 29.80 in 10.0 mi South 8.1 mph - N/A   Mostly Cloudy
2:15 AM 51.8 °F 46.4 °F 82% 29.79 in 10.0 mi SSE 9.2 mph - N/A   Overcast
2:35 AM 51.8 °F 44.6 °F 76% 29.79 in 10.0 mi South 8.1 mph - N/A   Overcast
2:55 AM 51.8 °F 44.6 °F 76% 29.78 in 10.0 mi SSE 6.9 mph - N/A   Mostly Cloudy
3:15 AM 51.8 °F 46.4 °F 82% 29.78 in 10.0 mi SSE 5.8 mph - N/A   Overcast
3:35 AM 51.8 °F 46.4 °F 82% 29.77 in 10.0 mi SSE 5.8 mph - N/A   Overcast
3:55 AM 51.8 °F 46.4 °F 82% 29.77 in 10.0 mi SE 4.6 mph - N/A   Overcast
4:15 AM 51.8 °F 46.4 °F 82% 29.76 in 10.0 mi South 3.5 mph - N/A   Overcast
4:35 AM 50.0 °F 46.4 °F 87% 29.77 in 10.0 mi SSE 3.5 mph - N/A   Overcast
4:55 AM 50.0 °F 46.4 °F 87% 29.76 in 10.0 mi SSE 5.8 mph - N/A   Mostly Cloudy
5:15 AM 51.8 °F 46.4 °F 82% 29.76 in 9.0 mi SSE 9.2 mph - N/A   Overcast
5:35 AM 50.0 °F 46.4 °F 87% 29.76 in 9.0 mi South 9.2 mph - N/A   Overcast
5:55 AM 50.0 °F 46.4 °F 87% 29.76 in 8.0 mi South 10.4 mph - 0.01 in   Overcast
6:15 AM 50.0 °F 46.4 °F 87% 29.76 in 8.0 mi South 9.2 mph - 0.02 in   Overcast
6:35 AM 50.0 °F 46.4 °F 87% 29.76 in 10.0 mi South 10.4 mph - 0.04 in   Mostly Cloudy
6:55 AM 50.0 °F 46.4 °F 87% 29.76 in 10.0 mi South 10.4 mph - 0.05 in   Overcast
7:15 AM 50.0 °F 46.4 °F 87% 29.77 in 10.0 mi SSW 12.7 mph - N/A   Overcast
7:35 AM 48.2 °F 46.4 °F 93% 29.78 in 10.0 mi SSW 11.5 mph - 0.01 in   Overcast
7:55 AM 50.0 °F 46.4 °F 87% 29.78 in 10.0 mi SSW 6.9 mph - 0.01 in   Overcast
8:15 AM 50.0 °F 46.4 °F 87% 29.78 in 10.0 mi SSW 11.5 mph - 0.01 in   Overcast
8:35 AM 51.8 °F 46.4 °F 82% 29.78 in 10.0 mi SSW 12.7 mph - 0.01 in   Overcast
8:55 AM 50.0 °F 46.4 °F 87% 29.78 in 8.0 mi SSW 11.5 mph - 0.03 in   Overcast
9:15 AM 48.2 °F 46.4 °F 93% 29.79 in 8.0 mi SSW 13.8 mph - 0.01 in   Overcast
9:35 AM 48.2 °F 46.4 °F 93% 29.79 in 10.0 mi South 13.8 mph - 0.01 in   Mostly Cloudy
9:55 AM 50.0 °F 44.6 °F 82% 29.79 in 10.0 mi SSW 15.0 mph - 0.01 in   Overcast
10:15 AM 48.2 °F 42.8 °F 82% 29.80 in 10.0 mi SSW 18.4 mph 23.0 mph N/A   Overcast
10:35 AM 50.0 °F 44.6 °F 82% 29.80 in 10.0 mi SSW 16.1 mph 24.2 mph N/A   Overcast
10:55 AM 48.2 °F 42.8 °F 82% 29.80 in 10.0 mi South 18.4 mph - N/A   Overcast
11:15 AM 48.2 °F 42.8 °F 82% 29.81 in 10.0 mi South 17.3 mph - N/A   Overcast
11:35 AM 50.0 °F 42.8 °F 76% 29.81 in 10.0 mi South 15.0 mph - N/A   Overcast
11:55 AM 50.0 °F 42.8 °F 76% 29.81 in 10.0 mi SSW 18.4 mph 26.5 mph N/A   Overcast
12:15 PM 51.8 °F 42.8 °F 71% 29.81 in 10.0 mi SSW 16.1 mph 21.9 mph N/A   Overcast
12:35 PM 51.8 °F 42.8 °F 71% 29.81 in 10.0 mi SSW 23.0 mph 27.6 mph N/A   Overcast
12:55 PM 51.8 °F 42.8 °F 71% 29.82 in 10.0 mi South 15.0 mph - N/A   Overcast
1:15 PM 51.8 °F 42.8 °F 71% 29.83 in 10.0 mi SSW 16.1 mph 24.2 mph N/A   Overcast
1:35 PM 51.8 °F 42.8 °F 71% 29.83 in 10.0 mi SSW 23.0 mph 29.9 mph N/A   Overcast
1:55 PM 51.8 °F 42.8 °F 71% 29.84 in 10.0 mi SSW 18.4 mph 25.3 mph N/A   Overcast
2:15 PM 51.8 °F 42.8 °F 71% 29.84 in 10.0 mi SSW 17.3 mph 20.7 mph N/A   Overcast
2:35 PM 51.8 °F 42.8 °F 71% 29.84 in 10.0 mi SSW 18.4 mph 23.0 mph N/A   Overcast
2:55 PM 53.6 °F 41.0 °F 62% 29.84 in 10.0 mi SSW 18.4 mph 24.2 mph N/A   Overcast
3:15 PM 53.6 °F 42.8 °F 67% 29.84 in 10.0 mi SSW 16.1 mph 21.9 mph N/A   Overcast
3:35 PM 53.6 °F 41.0 °F 62% 29.84 in 10.0 mi SSW 15.0 mph 25.3 mph N/A   Overcast
3:55 PM 53.6 °F 42.8 °F 67% 29.84 in 10.0 mi SSW 21.9 mph 26.5 mph N/A   Overcast
4:15 PM 55.4 °F 42.8 °F 63% 29.84 in 10.0 mi SSW 18.4 mph 24.2 mph N/A   Overcast
4:35 PM 55.4 °F 42.8 °F 63% 29.85 in 10.0 mi SSW 20.7 mph 26.5 mph N/A   Overcast
4:55 PM 55.4 °F 42.8 °F 63% 29.85 in 10.0 mi SSW 17.3 mph 27.6 mph N/A   Overcast
5:15 PM 55.4 °F 42.8 °F 63% 29.85 in 10.0 mi South 15.0 mph 24.2 mph N/A   Overcast
5:35 PM 55.4 °F 42.8 °F 63% 29.85 in 10.0 mi SSW 15.0 mph 26.5 mph N/A   Overcast
5:55 PM 55.4 °F 42.8 °F 63% 29.85 in 10.0 mi SSW 16.1 mph - N/A   Overcast
6:15 PM 53.6 °F 42.8 °F 67% 29.87 in 10.0 mi SSW 19.6 mph 24.2 mph N/A   Overcast
6:35 PM 53.6 °F 42.8 °F 67% 29.88 in 10.0 mi South 17.3 mph 20.7 mph N/A   Overcast
6:55 PM 53.6 °F 42.8 °F 67% 29.88 in 10.0 mi SSW 16.1 mph 21.9 mph N/A   Overcast
7:35 PM 53.6 °F 42.8 °F 67% 29.89 in 10.0 mi SSW 15.0 mph - N/A   Overcast
7:55 PM 51.8 °F 42.8 °F 71% 29.89 in 10.0 mi South 10.4 mph - N/A   Overcast
8:15 PM 51.8 °F 42.8 °F 71% 29.90 in 10.0 mi South 12.7 mph - N/A   Overcast
8:35 PM 51.8 °F 42.8 °F 71% 29.90 in 10.0 mi SSW 10.4 mph - N/A   Overcast
8:55 PM 51.8 °F 42.8 °F 71% 29.90 in 10.0 mi South 8.1 mph - N/A   Overcast
9:15 PM 50.0 °F 42.8 °F 76% 29.91 in 10.0 mi South 10.4 mph - N/A   Overcast
9:35 PM 50.0 °F 42.8 °F 76% 29.92 in 10.0 mi SSE 10.4 mph - N/A   Overcast
9:55 PM 50.0 °F 42.8 °F 76% 29.92 in 10.0 mi SSE 8.1 mph - N/A   Overcast
10:15 PM 50.0 °F 42.8 °F 76% 29.92 in 10.0 mi South 5.8 mph - N/A   Overcast
10:35 PM 48.2 °F 42.8 °F 82% 29.92 in 10.0 mi South 6.9 mph - N/A   Overcast
10:55 PM 48.2 °F 42.8 °F 82% 29.92 in 10.0 mi South 5.8 mph - N/A   Overcast
11:15 PM 48.2 °F 42.8 °F 82% 29.92 in 10.0 mi SSE 5.8 mph - N/A   Overcast
11:35 PM 50.0 °F 42.8 °F 76% 29.91 in 10.0 mi South 6.9 mph - N/A   Overcast
11:55 PM 50.0 °F 42.8 °F 76% 29.91 in 10.0 mi South 6.9 mph - N/A   Overcast